Preview of NWS' New Version of Forecast
This preview is not operational and should not be used for support decisions.

Regional Weather Roundup (RWR)

Issued by National Weather Service (NWS)

                            
000
ASUS46 KSEW 201310
RWRWA 

WASHINGTON REGIONAL WEATHER ROUNDUP
NATIONAL WEATHER SERVICE SEATTLE WA
600 AM PDT TUE AUG 20 2019

NOTE:"FAIR" INDICATES FEW OR NO CLOUDS BELOW 12,000 FEET WITH NO 
SIGNIFICANT WEATHER AND/OR OBSTRUCTIONS TO VISIBILITY.

WAZ507-509-555>559-201400-
SEATTLE, TACOMA, EVERETT, AND VICINITY
  
CITY           SKY/WX    TMP DP  RH WIND       PRES   REMARKS
EVERETT        CLEAR     55  51  86 CALM      29.96S                  
BOEING FIELD   CLEAR     59  51  75 CALM      29.94F                  
RENTON         CLEAR     56  52  86 CALM      29.94S                  
SEATAC AIRPORT PTCLDY    59  52  77 NE7       29.95S                  
JBLM-MCCHORD   CLEAR     50  50 100 CALM      29.95S                  
PUYALLUP       DRIZZLE   52  52 100 CALM      29.95S                  
BREMERTON      CLEAR     47  45  93 CALM      29.95S                  
JBLM-FT LEWIS  CLEAR     49  49 100 SE5       29.94S                  
TACOMA NARROWS CLEAR     54  48  80 CALM      29.95S                  
$$
 
WAZ001-503-506-510-514-515-201400-
NORTH INTERIOR
  
CITY           SKY/WX    TMP DP  RH WIND       PRES   REMARKS
BELLINGHAM     CLEAR     50  47  89 N3        29.94S FOG              
FRIDAY HARBOR  CLEAR     49  47  93 CALM      29.95S                  
EASTSOUND      CLEAR     52  50  93 S3        29.94R                  
PORT ANGELES   CLEAR     48  47  96 CALM      29.94F                  
EDIZ HOOK      FAIR      51  50  95 CALM      29.94F                  
PORT TOWNSEND  FAIR      45  43  93 CALM      29.94S                  
NAS WHIDBEY    MOCLDY    51  47  86 CALM      29.98S                  
ARLINGTON      FOG       49  48  97 CALM      29.95F VSB 1/2          
BURLINGTON     CLEAR     50  50 100 CALM      29.95S FOG              
$$
 
WAZ020-022-039-040-504-511-512-201400-
SOUTHWEST INTERIOR
  
CITY           SKY/WX    TMP DP  RH WIND       PRES   REMARKS
SHELTON        CLEAR     46  42  86 CALM      29.92F                  
OLYMPIA        CLEAR     50  48  93 CALM      29.94F                  
CHEHALIS       MOCLDY    50  50 100 CALM      29.95S                  
KELSO          CLEAR     52  52 100 CALM      29.94F                  
VANCOUVER      CLEAR     55  52  89 CALM      29.93S                  
SCAPPOOSE, OR  CLEAR     53  52  96 CALM      29.93R                  
PORTLAND, OR   PTCLDY    59  55  87 CALM      29.93S                  
$$
 
WAZ021-516-517-201400-
WASHINGTON COAST
  
CITY           SKY/WX    TMP DP  RH WIND       PRES   REMARKS
FORKS          CLEAR     49  47  93 CALM      29.92S                  
HOQUIAM        CLEAR     52  52 100 E8        29.93S FOG              
ASTORIA, OR    CLEAR     52  50  93 SE5       29.92R                  
$$
 
WAZ019-023-024-040-567>569-201400-
CASCADE MOUNTAINS AND COLUMBIA GORGE
  
CITY           SKY/WX    TMP DP  RH WIND       PRES   REMARKS
STAMPEDE PASS  CLEAR     55  40  56 CALM      30.04S                  
TROUTDALE, OR  CLEAR     55  51  86 E3        29.93S                  
HOOD RIVER, OR SUNNY     52  45  76 S3        29.94S                  
THE DALLES, OR CLEAR     61  53  75 NW8       29.91R                  
$$

WAZ026-027-041>044-520-521-201400-
EAST SLOPES
  
CITY           SKY/WX    TMP DP  RH WIND       PRES   REMARKS
OMAK           CLEAR     60  39  45 N5        29.96R                  
WENATCHEE      CLEAR     61  46  57 NW7       29.95R                  
ELLENSBURG       N/A     51  45  79 N3        29.96S                  
YAKIMA         CLEAR     53  48  83 W8        29.93S                  
SUNNYSIDE ARPT SUNNY     55  53  92 E3        29.91R                  
YAKIMA TC      FAIR      61  42  49 NE6       29.92S                  
$$

WAZ028-034-035-201400-
COLUMBIA BASIN
  
CITY           SKY/WX    TMP DP  RH WIND       PRES   REMARKS
EPHRATA        CLEAR     60  46  59 N5        29.93R                  
MOSES LAKE     CLEAR     56  45  66 N5        29.93S                  
PASCO          CLEAR     55  51  86 N5        29.91R                  
RICHLAND ARPT  SUNNY     57  56  95 CALM      29.91                   
HERMISTON, OR  CLEAR     59  47  64 SE3       29.90S                  
$$

WAZ036>038-201400-
NORTHEAST WASHINGTON
  
CITY           SKY/WX    TMP DP  RH WIND       PRES   REMARKS
SPOKANE GEIGER PTCLDY    60  47  61 NE8       30.00R                  
SPOKANE FELTS  CLEAR     54  48  80 CALM      30.00R                  
FAIRCHILD AFB  CLEAR     55  48  77 E6        30.00R                  
COEURDALENE,ID CLEAR     57  48  72 E6        30.02R                  
DEER PARK      CLEAR     51  43  74 CALM      30.00S                  
$$

WAZ029>033-201400-
SOUTHEAST WASHINGTON
  
CITY           SKY/WX    TMP DP  RH WIND       PRES   REMARKS
PULLMAN        PTCLDY    57  43  59 CALM      30.01R                  
LEWISTON, ID   PTCLDY    62  44  51 CALM      29.96R                  
WALLA WALLA    CLEAR     63  45  51 SE3       29.93R                  
PENDLETON, OR  CLEAR     58  44  60 E8        29.94R                  
$$